User: anonymous   Login
Location: Unspecified
(0.0000°N, 0.0000°E)
Time: 15:46:41
(UTC+00:00)
Language:

KEPLER-1 (CASE) - Orbit

View from above orbital plane
View from above orbital plane
View from above satellite
View from above satellite

Ground track
Ground track

The orbit data is extracted from the following two-line orbital elements,

1 43729U 18096L   22279.22350733  .00068157  00000-0  15005-2 0  9996
2 43729  97.3529   2.8882 0011380  17.5527 342.6112 15.43651801215191
Epoch (UTC): 06 October 2022 05:21:51
Eccentricity: 0.0011380
inclination: 97.3529°
perigee height: 427 km
apogee height: 443 km
right ascension of ascending node: 2.8882°
argument of perigee: 17.5527°
revolutions per day: 15.43651801
mean anomaly at epoch: 342.6112°
orbit number at epoch: 21519

The dashed part of the orbit path shows where the satellite is in the earth's shadow,  

DLR